TimeCST,TemperatureF,Dew PointF,Humidity,Sea Level PressureIn,VisibilityMPH,Wind Direction,Wind SpeedMPH,Gust SpeedMPH,PrecipitationIn,Events,Conditions,WindDirDegrees,DateUTC
12:15 AM,14.2,2.1,59,30.14,10.0,WNW,8.1,-,N/A,,Overcast,300,2013-02-15 06:15:00
12:35 AM,14.0,2.3,60,30.14,10.0,NW,8.1,-,N/A,,Overcast,310,2013-02-15 06:35:00
12:55 AM,13.5,2.7,62,30.14,10.0,NW,11.5,-,N/A,,Overcast,310,2013-02-15 06:55:00
1:15 AM,13.1,2.8,64,30.14,10.0,NW,10.4,-,N/A,,Overcast,310,2013-02-15 07:15:00
1:35 AM,12.9,3.0,65,30.14,10.0,NW,11.5,-,N/A,,Overcast,320,2013-02-15 07:35:00
1:55 AM,12.7,3.2,66,30.14,10.0,NW,11.5,-,N/A,,Overcast,310,2013-02-15 07:55:00
2:15 AM,12.2,3.0,67,30.15,10.0,NW,11.5,-,N/A,,Overcast,310,2013-02-15 08:15:00
2:35 AM,12.2,3.0,67,30.15,10.0,NW,11.5,-,N/A,,Overcast,310,2013-02-15 08:35:00
2:55 AM,11.8,3.0,68,30.15,10.0,NW,15.0,-,N/A,,Overcast,310,2013-02-15 08:55:00
3:15 AM,11.3,2.3,67,30.15,10.0,NW,15.0,-,N/A,,Overcast,310,2013-02-15 09:15:00
3:35 AM,10.2,1.9,69,30.15,10.0,NW,12.7,-,N/A,,Overcast,320,2013-02-15 09:35:00
3:55 AM,9.3,1.4,70,30.16,10.0,NW,10.4,-,N/A,,Overcast,320,2013-02-15 09:55:00
4:15 AM,8.6,1.0,71,30.16,10.0,NW,8.1,16.1,N/A,,Overcast,310,2013-02-15 10:15:00
4:35 AM,7.5,0.5,73,30.17,10.0,NW,12.7,-,N/A,,Mostly Cloudy,310,2013-02-15 10:35:00
4:55 AM,7.3,0.1,72,30.18,10.0,WNW,8.1,-,N/A,,Scattered Clouds,300,2013-02-15 10:55:00
5:15 AM,6.6,-0.2,74,30.19,10.0,WNW,5.8,-,N/A,,Clear,300,2013-02-15 11:15:00
5:35 AM,5.5,-1.1,74,30.19,10.0,WNW,3.5,-,N/A,,Clear,300,2013-02-15 11:35:00
5:55 AM,5.2,-1.1,75,30.20,10.0,NW,3.5,-,N/A,,Clear,320,2013-02-15 11:55:00
6:15 AM,4.6,-1.3,76,30.21,10.0,Calm,Calm,-,N/A,,Clear,0,2013-02-15 12:15:00
6:35 AM,1.9,-2.9,80,30.21,10.0,WNW,5.8,-,N/A,,Clear,300,2013-02-15 12:35:00
6:55 AM,2.7,-2.9,78,30.22,10.0,West,6.9,-,N/A,,Clear,280,2013-02-15 12:55:00
7:15 AM,2.1,-3.5,77,30.22,10.0,NW,9.2,-,N/A,,Clear,310,2013-02-15 13:15:00
7:35 AM,2.3,-3.5,77,30.23,10.0,NW,6.9,-,N/A,,Clear,310,2013-02-15 13:35:00
7:55 AM,3.0,-3.3,75,30.24,10.0,WNW,6.9,-,N/A,,Clear,300,2013-02-15 13:55:00
8:15 AM,2.8,-3.6,74,30.25,10.0,West,4.6,-,N/A,,Clear,280,2013-02-15 14:15:00
8:35 AM,3.0,-3.8,73,30.26,10.0,WNW,5.8,-,N/A,,Clear,290,2013-02-15 14:35:00
8:55 AM,3.0,-4.0,73,30.26,10.0,WNW,5.8,-,N/A,,Clear,300,2013-02-15 14:55:00
9:15 AM,4.1,-3.5,71,30.26,10.0,WNW,6.9,-,N/A,,Clear,300,2013-02-15 15:15:00
9:35 AM,5.0,-3.5,68,30.27,10.0,WNW,4.6,-,N/A,,Clear,290,2013-02-15 15:35:00
9:55 AM,6.4,-3.1,65,30.27,10.0,NW,3.5,-,N/A,,Clear,310,2013-02-15 15:55:00
10:15 AM,7.7,-2.6,63,30.26,10.0,WNW,9.2,-,N/A,,Clear,300,2013-02-15 16:15:00
10:35 AM,8.8,-2.9,59,30.26,10.0,WNW,6.9,-,N/A,,Clear,300,2013-02-15 16:35:00
10:55 AM,9.9,-2.7,57,30.26,10.0,WNW,9.2,-,N/A,,Clear,290,2013-02-15 16:55:00
11:15 AM,10.2,-2.6,56,30.26,10.0,NW,9.2,-,N/A,,Clear,310,2013-02-15 17:15:00
11:55 AM,12.0,-2.0,53,30.25,10.0,WNW,4.6,-,N/A,,Clear,300,2013-02-15 17:55:00
12:15 PM,12.9,-2.0,51,30.24,10.0,NW,11.5,-,N/A,,Clear,310,2013-02-15 18:15:00
12:35 PM,13.6,-2.0,50,30.24,10.0,NNW,10.4,16.1,N/A,,Clear,340,2013-02-15 18:35:00
12:55 PM,14.4,-2.0,48,30.24,10.0,NNW,10.4,-,N/A,,Clear,330,2013-02-15 18:55:00
1:15 PM,14.9,-1.7,48,30.23,10.0,NNW,12.7,16.1,N/A,,Scattered Clouds,330,2013-02-15 19:15:00
1:35 PM,16.0,-1.3,47,30.23,10.0,NNW,10.4,-,N/A,,Scattered Clouds,330,2013-02-15 19:35:00
1:55 PM,15.8,-0.8,48,30.23,10.0,NNW,10.4,-,N/A,,Clear,330,2013-02-15 19:55:00
2:15 PM,16.3,-0.8,47,30.23,10.0,NNW,16.1,20.7,N/A,,Clear,330,2013-02-15 20:15:00
2:35 PM,16.0,-0.6,48,30.22,10.0,NW,8.1,-,N/A,,Scattered Clouds,310,2013-02-15 20:35:00
2:55 PM,16.7,0.3,49,30.23,10.0,NNW,9.2,16.1,N/A,,Mostly Cloudy,330,2013-02-15 20:55:00
3:15 PM,16.5,-0.0,48,30.23,10.0,NNW,18.4,23.0,N/A,,Scattered Clouds,330,2013-02-15 21:15:00
3:35 PM,15.8,-0.2,49,30.23,10.0,NW,12.7,20.7,N/A,,Mostly Cloudy,310,2013-02-15 21:35:00
3:55 PM,16.3,0.7,50,30.23,10.0,WNW,15.0,19.6,N/A,,Overcast,300,2013-02-15 21:55:00
4:15 PM,15.8,0.7,51,30.24,10.0,NW,11.5,-,N/A,,Overcast,310,2013-02-15 22:15:00
4:35 PM,14.5,-0.0,53,30.24,10.0,NW,9.2,-,N/A,,Overcast,320,2013-02-15 22:35:00
4:55 PM,13.8,-0.8,52,30.24,10.0,NNW,8.1,16.1,N/A,,Scattered Clouds,340,2013-02-15 22:55:00
5:15 PM,13.1,-0.2,55,30.24,10.0,NNW,9.2,-,N/A,,Mostly Cloudy,340,2013-02-15 23:15:00
5:35 PM,12.9,0.1,57,30.24,10.0,North,8.1,-,N/A,,Overcast,350,2013-02-15 23:35:00
5:55 PM,12.2,0.5,60,30.24,10.0,NNW,5.8,-,N/A,,Overcast,340,2013-02-15 23:55:00
6:15 PM,11.3,0.5,62,30.24,10.0,NNW,5.8,-,N/A,,Overcast,330,2013-02-16 00:15:00
6:35 PM,10.9,1.4,65,30.25,10.0,NW,5.8,-,N/A,,Overcast,320,2013-02-16 00:35:00
6:55 PM,11.5,1.9,66,30.25,10.0,NW,4.6,-,N/A,,Overcast,320,2013-02-16 00:55:00
7:15 PM,10.0,1.4,68,30.25,10.0,NW,3.5,-,N/A,,Overcast,310,2013-02-16 01:15:00
7:35 PM,9.3,1.6,71,30.25,10.0,NNW,3.5,-,N/A,,Overcast,340,2013-02-16 01:35:00
7:55 PM,7.9,1.0,74,30.25,10.0,Calm,Calm,-,N/A,,Scattered Clouds,0,2013-02-16 01:55:00
8:15 PM,6.6,-0.8,72,30.24,10.0,Calm,Calm,-,N/A,,Mostly Cloudy,0,2013-02-16 02:15:00
8:35 PM,4.5,-0.6,80,30.24,10.0,WNW,3.5,-,N/A,,Overcast,300,2013-02-16 02:35:00
8:55 PM,6.6,-0.6,72,30.24,10.0,West,3.5,-,N/A,,Overcast,280,2013-02-16 02:55:00
9:15 PM,5.0,-0.8,77,30.24,10.0,West,3.5,-,N/A,,Overcast,260,2013-02-16 03:15:00
9:35 PM,5.7,0.3,78,30.24,10.0,NNE,3.5,-,N/A,,Overcast,20,2013-02-16 03:35:00
9:55 PM,4.5,-1.1,78,30.24,10.0,NNW,3.5,-,N/A,,Overcast,340,2013-02-16 03:55:00
10:15 PM,4.5,-0.4,80,30.23,10.0,Calm,Calm,-,N/A,,Overcast,0,2013-02-16 04:15:00
10:35 PM,2.3,-1.3,85,30.23,10.0,Calm,Calm,-,N/A,,Overcast,0,2013-02-16 04:35:00
10:55 PM,4.3,-0.0,82,30.23,10.0,Calm,Calm,-,N/A,,Overcast,0,2013-02-16 04:55:00
11:15 PM,3.6,-0.4,84,30.23,10.0,NW,3.5,-,N/A,,Overcast,320,2013-02-16 05:15:00
11:35 PM,5.7,0.7,80,30.22,10.0,NW,3.5,-,N/A,,Overcast,320,2013-02-16 05:35:00
11:55 PM,7.2,2.1,80,30.22,5.0,North,3.5,-,N/A,,Haze,350,2013-02-16 05:55:00